Santa Maria, CA

3:45 PM PDT on May 24, 2017 (GMT -0700)
Santa Maria Public Airport / Captain G. Allan Hancock Field

Weather History for KSMX - July, 2013

Change the Weather History Date:

Thursday, July 25, 2013

  Actual Average Record
Temperature  
Mean Temperature 65 °F 64 °F  
Max Temperature 72 °F 73 °F 87 °F (1973)
Min Temperature 57 °F 54 °F 43 °F (1922)
Degree Days  
Heating Degree Days 0 2  
Month to date heating degree days 14 61  
Since 1 June heating degree days 73 202  
Since 1 July heating degree days 14 61  
Cooling Degree Days 0 1  
Month to date cooling degree days 40 20  
Year to date cooling degree days 84 36  
Since 1 June cooling degree days 73 26  
Growing Degree Days 14 (Base 50)    
Moisture  
Dew Point 55 °F    
Average Humidity 75    
Maximum Humidity 93    
Minimum Humidity 57    
Precipitation  
Precipitation T in 0.01 in 0.03 in (1941)
Month to date precipitation 0.01 0.03  
Year to date precipitation 2.50 9.74  
Since 1 July precipitation 0.01  
Sea Level Pressure  
Sea Level Pressure 30.01 in    
Wind  
Wind Speed 7 mph (NW)    
Max Wind Speed 25 mph    
Max Gust Speed -    
Visibility 8 miles    
Events      
T = Trace of Precipitation, MM = Missing Value Source: NWS Daily Summary

Daily Weather History Graph

Daily Weather History Graph

Search for Another Location

Airport or City:

Trip Planner

Search our weather history database for the weather conditions in past years. The results will help you decide how hot, cold, wet, or windy it might be!

Date:

Astronomy

Jul. 25, 2013 Rise Set
Actual Time 6:06 AM PDT 8:09 PM PDT
Civil Twilight 5:38 AM PDT 8:37 PM PDT
Nautical Twilight 5:03 AM PDT 9:12 PM PDT
Astronomical Twilight 4:26 AM PDT 9:49 PM PDT
Moon 10:05 PM PDT (7/25) 9:30 AM PDT (7/25)
Length of Visible Light 14h 59m
Length of Day
14h 03m
Waning Gibbous, 87% of the Moon is Illuminated
Jul 25
Waning Gibbous
Jul 29
Last Quarter
Aug 6
New
Aug 14
First Quarter
Aug 20
Full

Hourly Weather History & Observations

Time (PDT) Temp. Dew Point Humidity Pressure Visibility Wind Dir Wind Speed Gust Speed Precip Events Conditions
12:31 AM 57.2 °F 55.4 °F 94% 29.98 in 1.8 mi West 4.6 mph - N/A   Overcast
12:39 AM 57.2 °F 55.4 °F 94% 29.98 in 1.0 mi West 3.5 mph - N/A   Overcast
12:45 AM 57.2 °F 55.4 °F 94% 29.98 in 2.0 mi NNW 3.5 mph - N/A   Overcast
12:51 AM 57.9 °F 55.9 °F 93% 29.98 in 4.0 mi WNW 5.8 mph - N/A   Overcast
1:03 AM 57.2 °F 55.4 °F 94% 29.97 in 1.8 mi NW 3.5 mph - N/A   Overcast
1:22 AM 57.2 °F 55.4 °F 94% 29.98 in 3.0 mi WNW 3.5 mph - N/A   Overcast
1:51 AM 57.9 °F 55.0 °F 90% 29.98 in 8.0 mi NNW 5.8 mph - N/A   Overcast
2:51 AM 59.0 °F 55.0 °F 87% 29.97 in 8.0 mi NW 3.5 mph - N/A   Overcast
3:51 AM 59.0 °F 55.0 °F 87% 29.96 in 8.0 mi WNW 3.5 mph - 0.00 in   Overcast
4:48 AM 59.0 °F 55.4 °F 88% 29.97 in 10.0 mi NW 4.6 mph - N/A   Overcast
4:51 AM 59.0 °F 55.0 °F 87% 29.97 in 10.0 mi NW 4.6 mph - N/A   Overcast
5:39 AM 57.2 °F 53.6 °F 88% 29.97 in 10.0 mi WNW 5.8 mph - N/A   Overcast
5:51 AM 57.0 °F 54.0 °F 89% 29.98 in 2.0 mi NW 6.9 mph - N/A   Overcast
6:51 AM 57.0 °F 55.0 °F 93% 30.00 in 3.0 mi NW 6.9 mph - N/A   Overcast
7:51 AM 57.9 °F 54.0 °F 87% 30.01 in 3.0 mi Calm Calm - N/A   Overcast
8:51 AM 60.1 °F 55.0 °F 83% 30.03 in 10.0 mi West 5.8 mph - N/A   Overcast
9:51 AM 62.1 °F 55.0 °F 78% 30.03 in 10.0 mi WNW 4.6 mph - N/A   Overcast
10:03 AM 62.6 °F 55.4 °F 77% 30.02 in 10.0 mi Calm Calm - N/A   Overcast
10:51 AM 66.9 °F 55.0 °F 66% 30.03 in 10.0 mi Variable 5.8 mph - N/A   Scattered Clouds
11:51 AM 70.0 °F 55.9 °F 61% 30.03 in 10.0 mi Variable 6.9 mph - N/A   Scattered Clouds
12:51 PM 70.0 °F 55.9 °F 61% 30.03 in 10.0 mi WNW 11.5 mph - N/A   Scattered Clouds
1:51 PM 71.1 °F 55.0 °F 57% 30.03 in 10.0 mi NW 18.4 mph - N/A   Scattered Clouds
2:51 PM 69.1 °F 55.0 °F 61% 30.03 in 10.0 mi NW 15.0 mph - N/A   Scattered Clouds
3:51 PM 68.0 °F 55.9 °F 65% 30.03 in 10.0 mi NW 13.8 mph - N/A   Scattered Clouds
4:51 PM 66.9 °F 55.9 °F 68% 30.02 in 10.0 mi NW 11.5 mph - N/A   Scattered Clouds
5:51 PM 64.9 °F 55.0 °F 70% 30.01 in 10.0 mi WNW 10.4 mph - N/A   Scattered Clouds
6:18 PM 64.4 °F 55.4 °F 73% 30.01 in 10.0 mi NW 11.5 mph - N/A   Mostly Cloudy
6:51 PM 62.1 °F 55.0 °F 78% 30.03 in 10.0 mi NW 10.4 mph - N/A   Overcast
7:51 PM 60.1 °F 55.0 °F 83% 30.04 in 10.0 mi NW 9.2 mph - N/A   Overcast
8:22 PM 59.0 °F 55.4 °F 88% 30.04 in 10.0 mi NW 9.2 mph - N/A   Overcast
8:51 PM 59.0 °F 55.0 °F 87% 30.05 in 10.0 mi WNW 9.2 mph - N/A   Overcast
9:51 PM 59.0 °F 55.0 °F 87% 30.07 in 9.0 mi NW 6.9 mph - N/A   Overcast
10:51 PM 57.9 °F 55.0 °F 90% 30.07 in 9.0 mi Calm Calm - N/A   Overcast
11:51 PM 59.0 °F 55.0 °F 87% 30.07 in 10.0 mi NW 3.5 mph - N/A   Overcast